Time,TemperatureF,DewpointF,PressureIn,WindDirection,WindDirectionDegrees,WindSpeedMPH,WindSpeedGustMPH,Humidity,HourlyPrecipIn,Conditions,Clouds,dailyrainin,SolarRadiationWatts/m^2,SoftwareType,DateUTC
2013-01-17 00:05:00,57.0,48.0,-100.00,SSE,161,1.0,4.0,72,0.00,,,0.17,0.000000,,2013-01-17 05:05:00,
2013-01-17 00:12:00,57.0,48.0,-100.00,SSE,161,1.0,4.0,72,0.00,,,0.17,0.000000,,2013-01-17 05:12:00,
2013-01-17 00:22:00,57.0,48.0,-100.00,SSE,161,1.0,4.0,72,0.00,,,0.17,0.000000,,2013-01-17 05:22:00,
2013-01-17 00:53:00,58.0,49.0,-100.00,SSW,195,2.0,5.0,73,0.00,,,0.01,0.000000,,2013-01-17 05:53:00,
2013-01-17 01:03:00,58.0,49.0,-100.00,SSW,195,2.0,5.0,73,0.00,,,0.01,0.000000,,2013-01-17 06:03:00,
2013-01-17 01:12:00,58.0,49.0,-100.00,SSW,195,2.0,5.0,73,0.00,,,0.01,0.000000,,2013-01-17 06:12:00,
2013-01-17 01:22:00,58.0,49.0,-100.00,SSW,195,2.0,5.0,73,0.00,,,0.01,0.000000,,2013-01-17 06:22:00,
2013-01-17 01:53:00,59.0,50.0,-100.00,SSW,213,2.0,7.0,73,0.00,,,0.01,0.000000,,2013-01-17 06:53:00,
2013-01-17 02:02:00,59.0,50.0,-100.00,SSW,213,2.0,7.0,73,0.00,,,0.01,0.000000,,2013-01-17 07:02:00,
2013-01-17 02:12:00,59.0,50.0,-100.00,SSW,213,2.0,7.0,73,0.00,,,0.01,0.000000,,2013-01-17 07:12:00,
2013-01-17 02:22:00,59.0,50.0,-100.00,SSW,213,2.0,7.0,73,0.00,,,0.01,0.000000,,2013-01-17 07:22:00,
2013-01-17 02:53:00,59.0,50.0,-100.00,SW,218,2.0,5.0,73,0.00,,,0.01,0.000000,,2013-01-17 07:53:00,
2013-01-17 03:02:00,59.0,50.0,-100.00,SW,218,2.0,5.0,73,0.00,,,0.01,0.000000,,2013-01-17 08:02:00,
2013-01-17 03:12:00,59.0,50.0,-100.00,SW,218,2.0,5.0,73,0.00,,,0.01,0.000000,,2013-01-17 08:12:00,
2013-01-17 03:22:00,59.0,50.0,-100.00,SW,218,2.0,5.0,73,0.00,,,0.01,0.000000,,2013-01-17 08:22:00,
2013-01-17 03:53:00,56.0,47.0,-100.00,WNW,283,0.0,3.0,73,0.00,,,0.01,0.000000,,2013-01-17 08:53:00,
2013-01-17 04:03:00,56.0,47.0,-100.00,WNW,283,0.0,3.0,73,0.00,,,0.01,0.000000,,2013-01-17 09:03:00,
2013-01-17 04:12:00,56.0,47.0,-100.00,WNW,283,0.0,3.0,73,0.00,,,0.01,0.000000,,2013-01-17 09:12:00,
2013-01-17 04:22:00,56.0,47.0,-100.00,WNW,283,0.0,3.0,73,0.00,,,0.01,0.000000,,2013-01-17 09:22:00,
2013-01-17 04:53:00,58.0,49.0,-100.00,WSW,237,2.0,5.0,73,0.00,,,0.01,0.000000,,2013-01-17 09:53:00,
2013-01-17 05:02:00,58.0,49.0,-100.00,WSW,237,2.0,5.0,73,0.00,,,0.01,0.000000,,2013-01-17 10:02:00,
2013-01-17 05:12:00,58.0,49.0,-100.00,WSW,237,2.0,5.0,73,0.00,,,0.01,0.000000,,2013-01-17 10:12:00,
2013-01-17 05:22:00,58.0,49.0,-100.00,WSW,237,2.0,5.0,73,0.00,,,0.01,0.000000,,2013-01-17 10:22:00,
2013-01-17 05:53:00,59.0,50.0,-100.00,South,174,2.0,7.0,73,0.00,,,0.01,0.000000,,2013-01-17 10:53:00,
2013-01-17 06:03:00,59.0,50.0,-100.00,South,174,2.0,7.0,73,0.00,,,0.01,0.000000,,2013-01-17 11:03:00,
2013-01-17 06:12:00,59.0,50.0,-100.00,South,174,2.0,7.0,73,0.00,,,0.01,0.000000,,2013-01-17 11:12:00,
2013-01-17 06:22:00,59.0,50.0,-100.00,South,174,2.0,7.0,73,0.00,,,0.01,0.000000,,2013-01-17 11:22:00,
2013-01-17 06:53:00,57.0,48.0,-100.00,NW,326,1.0,5.0,73,0.00,,,0.01,0.000000,,2013-01-17 11:53:00,
2013-01-17 07:03:00,57.0,48.0,-100.00,NW,326,1.0,5.0,73,0.00,,,0.01,0.000000,,2013-01-17 12:03:00,
2013-01-17 07:12:00,57.0,48.0,-100.00,NW,326,1.0,5.0,73,0.00,,,0.01,0.000000,,2013-01-17 12:12:00,
2013-01-17 07:23:00,57.0,48.0,-100.00,NW,326,1.0,5.0,73,0.00,,,0.01,0.000000,,2013-01-17 12:23:00,
2013-01-17 07:53:00,56.0,47.0,-100.00,NW,321,1.0,3.0,73,0.01,,,0.02,2.000000,,2013-01-17 12:53:00,
2013-01-17 08:03:00,56.0,47.0,-100.00,NW,321,1.0,3.0,73,0.01,,,0.02,2.000000,,2013-01-17 13:03:00,
2013-01-17 08:12:00,56.0,47.0,-100.00,NW,321,1.0,3.0,73,0.01,,,0.02,2.000000,,2013-01-17 13:12:00,
2013-01-17 08:23:00,56.0,47.0,-100.00,NW,321,1.0,3.0,73,0.01,,,0.02,2.000000,,2013-01-17 13:23:00,
2013-01-17 08:53:00,57.0,48.0,-100.00,NNW,327,2.0,4.0,73,0.00,,,0.02,49.000000,,2013-01-17 13:53:00,
2013-01-17 09:03:00,57.0,48.0,-100.00,NNW,327,2.0,4.0,73,0.00,,,0.02,49.000000,,2013-01-17 14:03:00,
2013-01-17 09:13:00,57.0,48.0,-100.00,NNW,327,2.0,4.0,73,0.00,,,0.02,49.000000,,2013-01-17 14:13:00,
2013-01-17 09:23:00,57.0,48.0,-100.00,NNW,327,2.0,4.0,73,0.00,,,0.02,49.000000,,2013-01-17 14:23:00,
2013-01-17 09:53:00,58.0,49.0,-100.00,North,8,3.0,5.0,73,0.00,,,0.01,136.000000,,2013-01-17 14:53:00,
2013-01-17 10:03:00,58.0,49.0,-100.00,North,8,3.0,5.0,73,0.00,,,0.01,136.000000,,2013-01-17 15:03:00,
2013-01-17 10:13:00,58.0,49.0,-100.00,North,8,3.0,5.0,73,0.00,,,0.01,136.000000,,2013-01-17 15:13:00,
2013-01-17 10:23:00,58.0,49.0,-100.00,North,8,3.0,5.0,73,0.00,,,0.01,136.000000,,2013-01-17 15:23:00,
2013-01-17 10:53:00,57.0,48.0,-100.00,NNE,12,3.0,7.0,73,0.00,,,0.01,178.000000,,2013-01-17 15:53:00,
2013-01-17 11:03:00,57.0,48.0,-100.00,NNE,12,3.0,7.0,73,0.00,,,0.01,178.000000,,2013-01-17 16:03:00,
2013-01-17 11:12:00,57.0,48.0,-100.00,NNE,12,3.0,7.0,73,0.00,,,0.01,178.000000,,2013-01-17 16:12:00,
2013-01-17 11:23:00,57.0,48.0,-100.00,NNE,12,3.0,7.0,73,0.00,,,0.01,178.000000,,2013-01-17 16:23:00,
2013-01-17 11:53:00,57.0,48.0,-100.00,NE,39,4.0,8.0,72,0.00,,,-99.99,199.000000,,2013-01-17 16:53:00,
2013-01-17 12:03:00,57.0,48.0,-100.00,NE,39,4.0,8.0,72,0.00,,,-99.99,199.000000,,2013-01-17 17:03:00,
2013-01-17 12:13:00,57.0,48.0,-100.00,NE,39,4.0,8.0,72,0.00,,,-99.99,199.000000,,2013-01-17 17:13:00,
2013-01-17 12:23:00,57.0,48.0,-100.00,NE,39,4.0,8.0,72,0.00,,,-99.99,199.000000,,2013-01-17 17:23:00,
2013-01-17 12:54:00,55.0,46.0,-100.00,NE,35,6.0,13.0,72,0.00,,,0.01,172.000000,,2013-01-17 17:54:00,
2013-01-17 13:04:00,55.0,46.0,-100.00,NE,35,6.0,13.0,72,0.00,,,0.01,172.000000,,2013-01-17 18:04:00,
2013-01-17 13:13:00,55.0,46.0,-100.00,NE,35,6.0,13.0,72,0.00,,,0.01,172.000000,,2013-01-17 18:13:00,
2013-01-17 13:23:00,55.0,46.0,-100.00,NE,35,6.0,13.0,72,0.00,,,0.01,172.000000,,2013-01-17 18:23:00,
2013-01-17 13:54:00,54.0,46.0,-100.00,NE,47,6.0,13.0,73,0.00,,,0.01,113.000000,,2013-01-17 18:54:00,
2013-01-17 14:04:00,54.0,46.0,-100.00,NE,47,6.0,13.0,73,0.00,,,0.01,113.000000,,2013-01-17 19:04:00,
2013-01-17 14:13:00,54.0,46.0,-100.00,NE,47,6.0,13.0,73,0.00,,,0.01,113.000000,,2013-01-17 19:13:00,
2013-01-17 14:23:00,54.0,46.0,-100.00,NE,47,6.0,13.0,73,0.00,,,0.01,113.000000,,2013-01-17 19:23:00,
2013-01-17 14:54:00,53.0,45.0,-100.00,NE,41,6.0,20.0,73,0.00,,,0.01,91.000000,,2013-01-17 19:54:00,
2013-01-17 15:03:00,53.0,45.0,-100.00,NE,41,6.0,20.0,73,0.00,,,0.01,91.000000,,2013-01-17 20:03:00,
2013-01-17 15:13:00,53.0,45.0,-100.00,NE,41,6.0,20.0,73,0.00,,,0.01,91.000000,,2013-01-17 20:13:00,
2013-01-17 15:23:00,53.0,45.0,-100.00,NE,41,6.0,20.0,73,0.00,,,0.01,91.000000,,2013-01-17 20:23:00,
2013-01-17 15:54:00,52.0,44.0,-100.00,NE,55,8.0,19.0,73,0.00,,,0.01,50.000000,,2013-01-17 20:54:00,
2013-01-17 16:03:00,52.0,44.0,-100.00,NE,55,8.0,19.0,73,0.00,,,0.01,50.000000,,2013-01-17 21:03:00,
2013-01-17 16:13:00,52.0,44.0,-100.00,NE,55,8.0,19.0,73,0.00,,,0.01,50.000000,,2013-01-17 21:13:00,
2013-01-17 16:23:00,52.0,44.0,-100.00,NE,55,8.0,19.0,73,0.00,,,0.01,50.000000,,2013-01-17 21:23:00,
2013-01-17 16:53:00,51.0,42.0,-100.00,NE,45,8.0,21.0,72,0.00,,,0.01,21.000000,,2013-01-17 21:53:00,
2013-01-17 17:04:00,51.0,42.0,-100.00,NE,45,8.0,21.0,72,0.00,,,0.01,21.000000,,2013-01-17 22:04:00,
2013-01-17 17:12:00,51.0,42.0,-100.00,NE,45,8.0,21.0,72,0.00,,,0.01,21.000000,,2013-01-17 22:12:00,
2013-01-17 17:23:00,51.0,42.0,-100.00,NE,45,8.0,21.0,72,0.00,,,0.01,21.000000,,2013-01-17 22:23:00,
2013-01-17 17:53:00,50.0,41.0,-100.00,NE,52,8.0,25.0,72,0.00,,,0.01,6.000000,,2013-01-17 22:53:00,
2013-01-17 18:03:00,50.0,41.0,-100.00,NE,52,8.0,25.0,72,0.00,,,0.01,6.000000,,2013-01-17 23:03:00,
2013-01-17 18:12:00,50.0,41.0,-100.00,NE,52,8.0,25.0,72,0.00,,,0.01,6.000000,,2013-01-17 23:12:00,
2013-01-17 18:23:00,50.0,41.0,-100.00,NE,52,8.0,25.0,72,0.00,,,0.01,6.000000,,2013-01-17 23:23:00,
2013-01-17 18:53:00,50.0,41.0,-100.00,NNE,33,8.0,22.0,72,0.00,,,0.01,0.000000,,2013-01-17 23:53:00,
2013-01-17 19:03:00,50.0,41.0,-100.00,NNE,33,8.0,22.0,72,0.00,,,0.01,0.000000,,2013-01-18 00:03:00,
2013-01-17 19:12:00,50.0,41.0,-100.00,NNE,33,8.0,22.0,72,0.00,,,0.01,0.000000,,2013-01-18 00:12:00,
2013-01-17 19:23:00,50.0,41.0,-100.00,NNE,33,8.0,22.0,72,0.00,,,0.01,0.000000,,2013-01-18 00:23:00,
2013-01-17 19:53:00,50.0,41.0,-100.00,NNE,33,8.0,19.0,71,0.00,,,0.01,0.000000,,2013-01-18 00:53:00,
2013-01-17 20:03:00,50.0,41.0,-100.00,NNE,33,8.0,19.0,71,0.00,,,0.01,0.000000,,2013-01-18 01:03:00,
2013-01-17 20:13:00,50.0,41.0,-100.00,NNE,33,8.0,19.0,71,0.00,,,0.01,0.000000,,2013-01-18 01:13:00,
2013-01-17 20:23:00,50.0,41.0,-100.00,NNE,33,8.0,19.0,71,0.00,,,0.01,0.000000,,2013-01-18 01:23:00,
2013-01-17 20:53:00,50.0,41.0,-100.00,North,9,7.0,22.0,72,0.06,,,0.07,0.000000,,2013-01-18 01:53:00,
2013-01-17 21:03:00,50.0,41.0,-100.00,North,9,7.0,22.0,72,0.06,,,0.07,0.000000,,2013-01-18 02:03:00,
2013-01-17 21:12:00,50.0,41.0,-100.00,North,9,7.0,22.0,72,0.06,,,0.07,0.000000,,2013-01-18 02:12:00,
2013-01-17 21:22:00,50.0,41.0,-100.00,North,9,7.0,22.0,72,0.06,,,0.07,0.000000,,2013-01-18 02:22:00,
2013-01-17 21:53:00,49.0,41.0,-100.00,NNE,21,8.0,19.0,73,0.32,,,0.39,0.000000,,2013-01-18 02:53:00,
2013-01-17 22:03:00,49.0,41.0,-100.00,NNE,21,8.0,19.0,73,0.32,,,0.39,0.000000,,2013-01-18 03:03:00,
2013-01-17 22:13:00,49.0,41.0,-100.00,NNE,21,8.0,19.0,73,0.32,,,0.39,0.000000,,2013-01-18 03:13:00,
2013-01-17 22:23:00,49.0,41.0,-100.00,NNE,21,8.0,19.0,73,0.32,,,0.39,0.000000,,2013-01-18 03:23:00,
2013-01-17 22:53:00,47.0,38.0,-100.00,North,8,7.0,19.0,72,0.11,,,0.50,0.000000,,2013-01-18 03:53:00,
2013-01-17 23:02:00,47.0,38.0,-100.00,North,8,7.0,19.0,72,0.11,,,0.50,0.000000,,2013-01-18 04:02:00,
2013-01-17 23:12:00,47.0,38.0,-100.00,North,8,7.0,19.0,72,0.11,,,0.50,0.000000,,2013-01-18 04:12:00,
2013-01-17 23:22:00,47.0,38.0,-100.00,North,8,7.0,19.0,72,0.11,,,0.50,0.000000,,2013-01-18 04:22:00,
2013-01-17 23:53:00,44.0,36.0,-100.00,NNW,327,8.0,22.0,72,0.12,,,0.62,0.000000,,2013-01-18 04:53:00,